| time (UTC) | temp F | wind direction | speed MPH | gust MPH | rain 1hr in | rain 24hr in | rain mn in | humidity % | barometer mb |
| 20260505235020 | 48 | 11 | 3.0 | 9.0 | 0.23 | 0.93 | 0.93 | 90 | 1008.2 |
| 20260505234826 | 49 | 13 | 3.0 | 12.0 | 0.22 | 0.91 | 0.91 | 90 | 1008.2 |
| 20260505233140 | 49 | 338 | 4.0 | 12.0 | 0.15 | 0.83 | 0.83 | 90 | 1007.7 |
| 20260505231254 | 49 | 16 | 6.0 | 19.0 | 0.16 | 0.73 | 0.73 | 89 | 1007.8 |
| 20260505224312 | 52 | 333 | 10.0 | 19.0 | 0.15 | 0.69 | 0.69 | 89 | 1007.6 |
| 20260505223510 | 53 | 355 | 7.0 | 17.0 | 0.13 | 0.67 | 0.67 | 89 | 1007.4 |
| 20260505222959 | 54 | 360 | 5.0 | 17.0 | 0.12 | 0.66 | 0.66 | 88 | 1007.4 |
| 20260505215554 | 59 | 213 | 2.0 | 4.0 | 0.00 | 0.54 | 0.54 | 90 | 1007.2 |
| 20260505215020 | 59 | 236 | 2.0 | 4.0 | 0.00 | 0.54 | 0.54 | 90 | 1007.2 |
| 20260505214549 | 59 | 230 | 1.0 | 4.0 | 0.00 | 0.54 | 0.54 | 90 | 1007.2 |
| 20260505214018 | 59 | 216 | 1.0 | 6.0 | 0.00 | 0.54 | 0.54 | 90 | 1007.1 |
| 20260505213520 | 59 | 220 | 2.0 | 7.0 | 0.00 | 0.54 | 0.54 | 90 | 1007.2 |
| 20260505213038 | 59 | 221 | 2.0 | 7.0 | 0.00 | 0.54 | 0.54 | 90 | 1007.1 |
| 20260505212520 | 59 | 216 | 2.0 | 7.0 | 0.00 | 0.54 | 0.54 | 90 | 1007.1 |
| 20260505212020 | 59 | 217 | 2.0 | 7.0 | 0.00 | 0.54 | 0.54 | 90 | 1007.1 |
| 20260505211539 | 59 | 242 | 3.0 | 7.0 | 0.00 | 0.54 | 0.54 | 90 | 1007.1 |
| 20260505211019 | 59 | 195 | 1.0 | 6.0 | 0.00 | 0.54 | 0.54 | 90 | 1007.2 |
| 20260505210519 | 59 | 211 | 2.0 | 6.0 | 0.00 | 0.54 | 0.54 | 90 | 1007.1 |
| 20260505210035 | 59 | 211 | 3.0 | 8.0 | 0.00 | 0.54 | 0.54 | 90 | 1007.2 |
| 20260505205520 | 59 | 219 | 2.0 | 9.0 | 0.00 | 0.54 | 0.54 | 90 | 1007.2 |
| 20260505205018 | 59 | 190 | 3.0 | 9.0 | 0.00 | 0.54 | 0.54 | 90 | 1007.4 |
| 20260505204538 | 59 | 212 | 3.0 | 9.0 | 0.00 | 0.54 | 0.54 | 90 | 1007.4 |
| 20260505204019 | 59 | 190 | 2.0 | 7.0 | 0.00 | 0.54 | 0.54 | 90 | 1007.4 |
| 20260505203517 | 59 | 196 | 2.0 | 9.0 | 0.00 | 0.54 | 0.54 | 90 | 1007.4 |
| 20260505203051 | 59 | 195 | 3.0 | 9.0 | 0.01 | 0.54 | 0.54 | 90 | 1007.3 |
| 20260505202518 | 59 | 196 | 2.0 | 8.0 | 0.01 | 0.54 | 0.54 | 90 | 1007.5 |
| 20260505202019 | 59 | 187 | 2.0 | 9.0 | 0.01 | 0.54 | 0.54 | 90 | 1007.4 |
| 20260505201541 | 58 | 169 | 3.0 | 9.0 | 0.01 | 0.54 | 0.54 | 90 | 1007.4 |
| 20260505201023 | 58 | 208 | 3.0 | 9.0 | 0.01 | 0.54 | 0.54 | 90 | 1007.4 |
| 20260505200519 | 58 | 201 | 2.0 | 10.0 | 0.02 | 0.54 | 0.54 | 90 | 1007.6 |
| 20260505200047 | 58 | 209 | 1.0 | 10.0 | 0.02 | 0.54 | 0.54 | 90 | 1007.6 |
| 20260505195520 | 58 | 213 | 3.0 | 6.0 | 0.03 | 0.55 | 0.54 | 90 | 1007.6 |
| 20260505195019 | 58 | 207 | 2.0 | 7.0 | 0.03 | 0.55 | 0.54 | 89 | 1007.6 |
| 20260505194539 | 58 | 165 | 3.0 | 9.0 | 0.04 | 0.55 | 0.54 | 89 | 1007.6 |
| 20260505194022 | 58 | 197 | 3.0 | 9.0 | 0.05 | 0.55 | 0.54 | 89 | 1007.6 |
| 20260505193518 | 58 | 228 | 2.0 | 8.0 | 0.06 | 0.55 | 0.54 | 89 | 1007.8 |
| 20260505193038 | 58 | 223 | 3.0 | 10.0 | 0.06 | 0.54 | 0.52 | 89 | 1007.9 |
| 20260505192520 | 59 | 162 | 4.0 | 10.0 | 0.07 | 0.54 | 0.52 | 89 | 1007.9 |
| 20260505192017 | 59 | 162 | 3.0 | 9.0 | 0.08 | 0.54 | 0.52 | 89 | 1008.0 |
| 20260505191535 | 59 | 161 | 3.0 | 9.0 | 0.08 | 0.54 | 0.52 | 89 | 1008.0 |
| 20260505191016 | 59 | 169 | 2.0 | 7.0 | 0.09 | 0.54 | 0.52 | 89 | 1007.9 |
| 20260505190517 | 59 | 209 | 2.0 | 10.0 | 0.10 | 0.52 | 0.52 | 89 | 1008.1 |
| 20260505190042 | 59 | 202 | 3.0 | 11.0 | 0.11 | 0.52 | 0.52 | 89 | 1007.9 |
| 20260505185521 | 59 | 212 | 4.0 | 11.0 | 0.10 | 0.52 | 0.51 | 88 | 1008.0 |
| 20260505185021 | 59 | 208 | 4.0 | 11.0 | 0.10 | 0.52 | 0.51 | 88 | 1008.3 |
| 20260505184539 | 60 | 240 | 2.0 | 9.0 | 0.09 | 0.51 | 0.50 | 88 | 1008.3 |
| 20260505184021 | 60 | 238 | 3.0 | 11.0 | 0.08 | 0.50 | 0.49 | 88 | 1008.2 |
| 20260505183519 | 60 | 211 | 4.0 | 11.0 | 0.07 | 0.49 | 0.48 | 87 | 1008.3 |
| 20260505183039 | 60 | 217 | 3.0 | 11.0 | 0.06 | 0.48 | 0.47 | 87 | 1008.4 |
| 20260505182519 | 60 | 217 | 5.0 | 10.0 | 0.05 | 0.47 | 0.46 | 86 | 1008.5 |
| 20260505182019 | 60 | 198 | 2.0 | 8.0 | 0.04 | 0.46 | 0.45 | 86 | 1008.4 |
| 20260505181543 | 60 | 258 | 2.0 | 7.0 | 0.04 | 0.46 | 0.45 | 85 | 1008.4 |
| 20260505181017 | 61 | 242 | 2.0 | 11.0 | 0.02 | 0.44 | 0.43 | 84 | 1008.5 |
| 20260505180518 | 61 | 230 | 3.0 | 11.0 | 0.01 | 0.43 | 0.42 | 82 | 1008.6 |
| 20260505180038 | 61 | 221 | 3.0 | 11.0 | 0.00 | 0.42 | 0.41 | 82 | 1008.6 |
| 20260505175517 | 61 | 195 | 3.0 | 9.0 | 0.00 | 0.42 | 0.41 | 81 | 1008.6 |
| 20260505175018 | 61 | 222 | 2.0 | 9.0 | 0.00 | 0.42 | 0.41 | 81 | 1008.4 |
| 20260505174544 | 61 | 274 | 2.0 | 9.0 | 0.00 | 0.42 | 0.41 | 81 | 1008.5 |
| 20260505174020 | 61 | 206 | 4.0 | 9.0 | 0.00 | 0.42 | 0.41 | 80 | 1008.2 |
| 20260505173520 | 61 | 189 | 3.0 | 11.0 | 0.00 | 0.42 | 0.41 | 81 | 1008.5 |
| 20260505173039 | 61 | 202 | 2.0 | 11.0 | 0.00 | 0.42 | 0.41 | 81 | 1008.4 |
| 20260505172519 | 62 | 220 | 3.0 | 7.0 | 0.00 | 0.42 | 0.41 | 81 | 1008.4 |
| 20260505172020 | 62 | 248 | 2.0 | 7.0 | 0.00 | 0.42 | 0.41 | 81 | 1008.4 |
| 20260505171544 | 62 | 251 | 2.0 | 9.0 | 0.00 | 0.42 | 0.41 | 80 | 1008.6 |
| 20260505171020 | 62 | 221 | 2.0 | 10.0 | 0.00 | 0.42 | 0.41 | 79 | 1008.5 |
| 20260505170520 | 62 | 219 | 3.0 | 10.0 | 0.00 | 0.42 | 0.41 | 78 | 1008.6 |
| 20260505170100 | 62 | 202 | 3.0 | 10.0 | 0.00 | 0.42 | 0.41 | 78 | 1008.5 |
| 20260505165517 | 62 | 185 | 3.0 | 9.0 | 0.00 | 0.42 | 0.41 | 78 | 1008.3 |
| 20260505165017 | 63 | 246 | 3.0 | 9.0 | 0.00 | 0.42 | 0.41 | 77 | 1008.5 |
| 20260505164542 | 63 | 220 | 4.0 | 11.0 | 0.00 | 0.42 | 0.41 | 77 | 1008.5 |
| 20260505164017 | 63 | 230 | 4.0 | 16.0 | 0.00 | 0.42 | 0.41 | 77 | 1008.6 |
| 20260505163519 | 63 | 204 | 4.0 | 16.0 | 0.00 | 0.42 | 0.41 | 76 | 1008.6 |
| 20260505163042 | 63 | 195 | 3.0 | 10.0 | 0.00 | 0.42 | 0.41 | 77 | 1008.5 |
| 20260505162520 | 63 | 237 | 3.0 | 12.0 | 0.00 | 0.42 | 0.41 | 77 | 1008.5 |
| 20260505162020 | 63 | 195 | 3.0 | 14.0 | 0.00 | 0.42 | 0.41 | 76 | 1008.4 |
| 20260505161540 | 63 | 194 | 5.0 | 14.0 | 0.00 | 0.42 | 0.41 | 75 | 1008.5 |
| 20260505161020 | 63 | 194 | 5.0 | 12.0 | 0.00 | 0.42 | 0.41 | 75 | 1008.4 |
| 20260505160520 | 64 | 175 | 4.0 | 13.0 | 0.00 | 0.42 | 0.41 | 75 | 1008.5 |
| 20260505153041 | 63 | 233 | 5.0 | 14.0 | 0.00 | 0.42 | 0.41 | 77 | 1008.8 |
| 20260505152517 | 63 | 209 | 5.0 | 13.0 | 0.00 | 0.42 | 0.41 | 82 | 1008.7 |
| 20260505152021 | 63 | 184 | 5.0 | 13.0 | 0.00 | 0.42 | 0.41 | 77 | 1008.6 |
| 20260505151553 | 63 | 199 | 3.0 | 8.0 | 0.00 | 0.42 | 0.41 | 78 | 1008.7 |
| 20260505151020 | 63 | 238 | 2.0 | 10.0 | 0.00 | 0.42 | 0.41 | 80 | 1008.7 |
| 20260505150523 | 63 | 178 | 4.0 | 10.0 | 0.00 | 0.42 | 0.41 | 78 | 1008.5 |
| 20260505140520 | 62 | 207 | 2.0 | 8.0 | 0.00 | 0.42 | 0.41 | 82 | 1008.1 |
| 20260505125017 | 58 | 164 | 3.0 | 10.0 | 0.00 | 0.42 | 0.41 | 87 | 1007.5 |
| 20260505124535 | 58 | 202 | 4.0 | 8.0 | 0.00 | 0.42 | 0.41 | 87 | 1007.5 |
| 20260505124022 | 57 | 193 | 4.0 | 11.0 | 0.00 | 0.42 | 0.41 | 87 | 1007.6 |
| 20260505123519 | 57 | 180 | 3.0 | 11.0 | 0.00 | 0.42 | 0.41 | 87 | 1007.4 |
| 20260505123034 | 57 | 164 | 4.0 | 11.0 | 0.00 | 0.42 | 0.41 | 87 | 1007.6 |
| 20260505122520 | 56 | 156 | 5.0 | 12.0 | 0.00 | 0.42 | 0.41 | 88 | 1007.5 |
| 20260505122020 | 56 | 178 | 3.0 | 14.0 | 0.00 | 0.42 | 0.41 | 88 | 1007.5 |
| 20260505121543 | 56 | 176 | 5.0 | 15.0 | 0.00 | 0.42 | 0.41 | 88 | 1007.5 |
| 20260505121017 | 56 | 197 | 5.0 | 15.0 | 0.00 | 0.42 | 0.41 | 89 | 1007.3 |
| 20260505120522 | 56 | 167 | 5.0 | 12.0 | 0.00 | 0.42 | 0.41 | 89 | 1007.3 |
| 20260505120043 | 56 | 200 | 6.0 | 13.0 | 0.00 | 0.42 | 0.41 | 89 | 1007.3 |
| 20260505115519 | 56 | 165 | 5.0 | 14.0 | 0.00 | 0.42 | 0.41 | 89 | 1007.3 |
| 20260505115017 | 55 | 167 | 4.0 | 14.0 | 0.00 | 0.42 | 0.41 | 89 | 1007.2 |
| 20260505114540 | 55 | 129 | 5.0 | 14.0 | 0.00 | 0.42 | 0.41 | 89 | 1006.9 |
| 20260505114020 | 55 | 156 | 6.0 | 14.0 | 0.00 | 0.42 | 0.41 | 89 | 1007.2 |
| 20260505113516 | 55 | 138 | 7.0 | 16.0 | 0.00 | 0.42 | 0.41 | 88 | 1007.3 |
| 20260505113034 | 55 | 146 | 7.0 | 16.0 | 0.00 | 0.42 | 0.41 | 88 | 1007.1 |
| 20260505112521 | 55 | 154 | 6.0 | 16.0 | 0.00 | 0.42 | 0.41 | 88 | 1007.3 |
| 20260505112018 | 55 | 155 | 5.0 | 9.0 | 0.00 | 0.42 | 0.41 | 88 | 1007.3 |
| 20260505111532 | 55 | 184 | 4.0 | 11.0 | 0.00 | 0.42 | 0.41 | 89 | 1007.5 |
| 20260505111019 | 55 | 211 | 4.0 | 12.0 | 0.00 | 0.42 | 0.41 | 89 | 1007.5 |
| 20260505110519 | 55 | 216 | 3.0 | 13.0 | 0.00 | 0.42 | 0.41 | 89 | 1007.5 |
| 20260505102020 | 55 | 157 | 5.0 | 11.0 | 0.01 | 0.42 | 0.41 | 91 | 1006.2 |
| 20260505101542 | 55 | 155 | 5.0 | 11.0 | 0.01 | 0.42 | 0.41 | 91 | 1006.1 |
| 20260505101020 | 55 | 160 | 5.0 | 13.0 | 0.02 | 0.42 | 0.41 | 91 | 1006.0 |
| 20260505100521 | 55 | 130 | 5.0 | 13.0 | 0.02 | 0.42 | 0.41 | 91 | 1006.0 |
| 20260505100036 | 55 | 153 | 4.0 | 12.0 | 0.02 | 0.42 | 0.41 | 91 | 1006.0 |
| 20260505095521 | 55 | 184 | 5.0 | 11.0 | 0.02 | 0.42 | 0.41 | 91 | 1006.2 |
| 20260505095020 | 55 | 155 | 5.0 | 11.0 | 0.03 | 0.42 | 0.41 | 91 | 1006.2 |
| 20260505094540 | 55 | 129 | 4.0 | 12.0 | 0.03 | 0.42 | 0.41 | 90 | 1006.8 |
| 20260505094020 | 55 | 159 | 5.0 | 12.0 | 0.04 | 0.42 | 0.41 | 90 | 1007.1 |
| 20260505093520 | 55 | 136 | 4.0 | 10.0 | 0.04 | 0.41 | 0.40 | 90 | 1007.4 |
| 20260505093043 | 55 | 154 | 4.0 | 10.0 | 0.05 | 0.41 | 0.40 | 90 | 1007.7 |
| 20260505092521 | 55 | 148 | 3.0 | 9.0 | 0.05 | 0.41 | 0.40 | 90 | 1007.8 |
| 20260505092021 | 55 | 152 | 3.0 | 9.0 | 0.07 | 0.41 | 0.40 | 90 | 1007.8 |
| 20260505091540 | 55 | 183 | 4.0 | 9.0 | 0.10 | 0.40 | 0.39 | 90 | 1007.8 |
| 20260505091020 | 55 | 148 | 4.0 | 9.0 | 0.12 | 0.40 | 0.39 | 90 | 1007.6 |
| 20260505090521 | 55 | 161 | 2.0 | 5.0 | 0.14 | 0.40 | 0.39 | 90 | 1008.2 |
| 20260505090051 | 55 | 284 | 0.0 | 2.0 | 0.15 | 0.40 | 0.39 | 90 | 1008.7 |
| 20260505085521 | 55 | 309 | 0.0 | 2.0 | 0.17 | 0.40 | 0.39 | 90 | 1008.9 |
| 20260505085021 | 55 | 0 | 0.0 | 2.0 | 0.18 | 0.39 | 0.38 | 89 | 1008.9 |
| 20260505084537 | 55 | 0 | 0.0 | 2.0 | 0.19 | 0.39 | 0.38 | 90 | 1008.9 |
| 20260505084020 | 55 | 324 | 0.0 | 3.0 | 0.20 | 0.38 | 0.37 | 90 | 1009.0 |
| 20260505083521 | 55 | 324 | 0.0 | 3.0 | 0.21 | 0.37 | 0.36 | 89 | 1008.9 |
| 20260505083040 | 56 | 324 | 1.0 | 3.0 | 0.21 | 0.36 | 0.35 | 89 | 1009.1 |
| 20260505082521 | 56 | 333 | 0.0 | 5.0 | 0.22 | 0.36 | 0.35 | 89 | 1009.0 |
| 20260505082021 | 56 | 338 | 0.0 | 5.0 | 0.20 | 0.34 | 0.33 | 89 | 1008.6 |
| 20260505081544 | 56 | 331 | 2.0 | 5.0 | 0.17 | 0.30 | 0.29 | 89 | 1008.4 |
| 20260505081022 | 56 | 0 | 2.0 | 6.0 | 0.15 | 0.27 | 0.26 | 89 | 1008.5 |
| 20260505080520 | 56 | 343 | 2.0 | 6.0 | 0.14 | 0.26 | 0.25 | 89 | 1008.2 |
| 20260505080039 | 56 | 346 | 3.0 | 6.0 | 0.14 | 0.25 | 0.24 | 88 | 1007.9 |
| 20260505075524 | 56 | 348 | 1.0 | 3.0 | 0.13 | 0.23 | 0.22 | 88 | 1007.6 |
| 20260505075020 | 56 | 352 | 1.0 | 3.0 | 0.12 | 0.21 | 0.20 | 88 | 1007.3 |
| 20260505074538 | 56 | 355 | 1.0 | 9.0 | 0.13 | 0.19 | 0.18 | 88 | 1007.3 |
| 20260505074020 | 56 | 355 | 1.0 | 9.0 | 0.13 | 0.18 | 0.17 | 87 | 1007.2 |
| 20260505073520 | 57 | 348 | 4.0 | 9.0 | 0.11 | 0.15 | 0.14 | 87 | 1007.3 |
| 20260505073038 | 57 | 343 | 5.0 | 9.0 | 0.12 | 0.15 | 0.14 | 87 | 1007.5 |
| 20260505072518 | 57 | 343 | 2.0 | 4.0 | 0.13 | 0.14 | 0.13 | 86 | 1006.8 |
| 20260505072019 | 57 | 346 | 0.0 | 3.0 | 0.13 | 0.14 | 0.13 | 86 | 1006.2 |
| 20260505071533 | 58 | 346 | 1.0 | 3.0 | 0.12 | 0.13 | 0.12 | 85 | 1006.4 |
| 20260505071022 | 58 | 345 | 1.0 | 3.0 | 0.11 | 0.12 | 0.11 | 85 | 1006.8 |
| 20260505070523 | 58 | 320 | 1.0 | 3.0 | 0.11 | 0.12 | 0.11 | 85 | 1006.7 |
| 20260505070044 | 58 | 309 | 1.0 | 5.0 | 0.10 | 0.11 | 0.10 | 84 | 1007.0 |
| 20260505065520 | 58 | 305 | 2.0 | 8.0 | 0.09 | 0.10 | 0.09 | 83 | 1007.1 |
| 20260505065018 | 59 | 296 | 3.0 | 12.0 | 0.08 | 0.09 | 0.08 | 81 | 1007.2 |
| 20260505064538 | 60 | 319 | 5.0 | 12.0 | 0.05 | 0.06 | 0.05 | 79 | 1007.4 |
| 20260505064017 | 60 | 286 | 3.0 | 6.0 | 0.04 | 0.05 | 0.04 | 77 | 1007.3 |
| 20260505063519 | 61 | 278 | 2.0 | 4.0 | 0.03 | 0.04 | 0.03 | 75 | 1007.5 |
| 20260505063040 | 61 | 300 | 1.0 | 4.0 | 0.02 | 0.03 | 0.02 | 74 | 1007.4 |
| 20260505062523 | 62 | 293 | 2.0 | 4.0 | 0.00 | 0.01 | 0.00 | 72 | 1007.3 |
| 20260505062020 | 62 | 0 | 1.0 | 4.0 | 0.00 | 0.01 | 0.00 | 70 | 1006.9 |
| 20260505061540 | 63 | 282 | 1.0 | 5.0 | 0.00 | 0.01 | 0.00 | 70 | 1006.8 |
| 20260505061023 | 63 | 279 | 2.0 | 5.0 | 0.00 | 0.01 | 0.00 | 68 | 1006.7 |
| 20260505060521 | 63 | 273 | 3.0 | 7.0 | 0.00 | 0.01 | 0.00 | 66 | 1006.7 |
| 20260505060035 | 63 | 256 | 2.0 | 8.0 | 0.00 | 0.01 | 0.00 | 64 | 1006.5 |
| 20260505055518 | 64 | 252 | 3.0 | 9.0 | 0.00 | 0.01 | 0.00 | 63 | 1006.4 |
| 20260505055020 | 64 | 242 | 4.0 | 9.0 | 0.00 | 0.01 | 0.00 | 62 | 1006.4 |
| 20260505054539 | 64 | 232 | 3.0 | 8.0 | 0.00 | 0.01 | 0.00 | 61 | 1006.1 |
| 20260505054021 | 64 | 240 | 3.0 | 9.0 | 0.00 | 0.01 | 0.00 | 61 | 1005.9 |
| 20260505053519 | 64 | 229 | 3.0 | 9.0 | 0.00 | 0.01 | 0.00 | 60 | 1005.7 |
| 20260505053045 | 65 | 248 | 4.0 | 9.0 | 0.00 | 0.01 | 0.00 | 60 | 1005.6 |
| 20260505052517 | 65 | 231 | 4.0 | 9.0 | 0.00 | 0.01 | 0.00 | 59 | 1005.6 |
| 20260505052017 | 65 | 212 | 4.0 | 16.0 | 0.00 | 0.01 | 0.00 | 59 | 1005.4 |
| 20260505051538 | 65 | 236 | 4.0 | 16.0 | 0.00 | 0.01 | 0.00 | 58 | 1005.0 |
| 20260505051018 | 65 | 206 | 6.0 | 15.0 | 0.00 | 0.01 | 0.00 | 58 | 1004.8 |
| 20260505050522 | 66 | 249 | 5.0 | 15.0 | 0.00 | 0.01 | 0.00 | 58 | 1004.7 |
| 20260505041539 | 67 | 168 | 6.0 | 17.0 | 0.00 | 0.01 | 0.00 | 57 | 1004.4 |
| 20260505041017 | 67 | 190 | 5.0 | 20.0 | 0.00 | 0.01 | 0.00 | 56 | 1004.5 |
| 20260505040517 | 67 | 219 | 7.0 | 20.0 | 0.00 | 0.01 | 0.00 | 56 | 1004.6 |
| 20260505040040 | 67 | 201 | 6.0 | 19.0 | 0.00 | 0.01 | 0.00 | 56 | 1004.6 |
| 20260505035517 | 67 | 200 | 6.0 | 16.0 | 0.00 | 0.01 | 0.01 | 57 | 1004.7 |
| 20260505035018 | 67 | 202 | 6.0 | 16.0 | 0.00 | 0.01 | 0.01 | 57 | 1004.8 |
| 20260505034538 | 67 | 228 | 6.0 | 15.0 | 0.00 | 0.01 | 0.01 | 56 | 1004.9 |
| 20260505034018 | 67 | 206 | 5.0 | 16.0 | 0.00 | 0.01 | 0.01 | 56 | 1005.0 |
| 20260505033520 | 67 | 222 | 6.0 | 16.0 | 0.00 | 0.01 | 0.01 | 56 | 1005.0 |
| 20260505033102 | 67 | 221 | 3.0 | 14.0 | 0.00 | 0.01 | 0.01 | 57 | 1005.1 |
| 20260505032518 | 68 | 251 | 4.0 | 17.0 | 0.00 | 0.01 | 0.01 | 56 | 1005.1 |
| 20260505032017 | 68 | 192 | 6.0 | 17.0 | 0.00 | 0.01 | 0.01 | 56 | 1005.1 |
| 20260505031537 | 68 | 202 | 6.0 | 17.0 | 0.00 | 0.01 | 0.01 | 56 | 1005.2 |
| 20260505031018 | 68 | 179 | 7.0 | 16.0 | 0.00 | 0.01 | 0.01 | 56 | 1005.2 |
| 20260505030520 | 68 | 211 | 7.0 | 13.0 | 0.00 | 0.01 | 0.01 | 56 | 1005.3 |
| 20260505030039 | 67 | 209 | 6.0 | 15.0 | 0.00 | 0.01 | 0.01 | 57 | 1005.3 |
| 20260505025520 | 67 | 224 | 4.0 | 15.0 | 0.00 | 0.01 | 0.01 | 57 | 1005.2 |
| 20260505025019 | 67 | 204 | 5.0 | 14.0 | 0.00 | 0.01 | 0.01 | 57 | 1005.1 |
| 20260505024538 | 67 | 229 | 5.0 | 14.0 | 0.00 | 0.01 | 0.01 | 57 | 1005.3 |
| 20260505024017 | 67 | 144 | 4.0 | 13.0 | 0.00 | 0.01 | 0.01 | 57 | 1005.2 |
| 20260505023517 | 67 | 198 | 4.0 | 12.0 | 0.00 | 0.01 | 0.01 | 57 | 1005.1 |
| 20260505023042 | 67 | 190 | 6.0 | 12.0 | 0.00 | 0.01 | 0.01 | 57 | 1005.2 |
| 20260505022522 | 67 | 246 | 4.0 | 12.0 | 0.00 | 0.01 | 0.01 | 57 | 1005.1 |
| 20260505022017 | 67 | 215 | 4.0 | 12.0 | 0.00 | 0.01 | 0.01 | 56 | 1005.1 |
| 20260505021534 | 67 | 214 | 5.0 | 11.0 | 0.00 | 0.01 | 0.01 | 56 | 1005.0 |
| 20260505021022 | 67 | 252 | 3.0 | 10.0 | 0.00 | 0.01 | 0.01 | 56 | 1005.0 |
| 20260505020520 | 67 | 192 | 4.0 | 10.0 | 0.00 | 0.01 | 0.01 | 56 | 1004.9 |
| 20260505020032 | 68 | 205 | 4.0 | 10.0 | 0.00 | 0.01 | 0.01 | 56 | 1004.9 |
| 20260505015520 | 68 | 198 | 3.0 | 8.0 | 0.00 | 0.01 | 0.01 | 56 | 1004.8 |
| 20260505015019 | 68 | 204 | 3.0 | 9.0 | 0.00 | 0.01 | 0.01 | 55 | 1004.7 |
| 20260505014539 | 68 | 211 | 3.0 | 10.0 | 0.00 | 0.01 | 0.01 | 55 | 1004.6 |
| 20260505014019 | 68 | 213 | 4.0 | 11.0 | 0.00 | 0.01 | 0.01 | 55 | 1004.5 |
| 20260505013519 | 69 | 198 | 3.0 | 11.0 | 0.00 | 0.01 | 0.01 | 54 | 1004.4 |
| 20260505013039 | 69 | 195 | 4.0 | 8.0 | 0.00 | 0.01 | 0.01 | 54 | 1004.2 |
| 20260505012518 | 69 | 154 | 4.0 | 13.0 | 0.00 | 0.01 | 0.01 | 53 | 1004.2 |
| 20260505012018 | 69 | 190 | 3.0 | 13.0 | 0.00 | 0.01 | 0.01 | 53 | 1004.1 |
| 20260505011535 | 69 | 126 | 4.0 | 14.0 | 0.00 | 0.01 | 0.01 | 53 | 1004.0 |
| 20260505011021 | 70 | 180 | 5.0 | 14.0 | 0.00 | 0.01 | 0.01 | 52 | 1003.9 |
| 20260505010521 | 70 | 216 | 5.0 | 11.0 | 0.00 | 0.01 | 0.01 | 52 | 1003.9 |
| 20260505010043 | 70 | 190 | 5.0 | 13.0 | 0.00 | 0.01 | 0.01 | 52 | 1003.8 |
| 20260505005521 | 70 | 192 | 4.0 | 15.0 | 0.00 | 0.01 | 0.01 | 52 | 1003.7 |
| 20260505005021 | 70 | 209 | 7.0 | 15.0 | 0.00 | 0.01 | 0.01 | 51 | 1003.8 |
| 20260505004546 | 70 | 192 | 5.0 | 15.0 | 0.00 | 0.01 | 0.01 | 51 | 1003.8 |
| 20260505004021 | 71 | 213 | 5.0 | 15.0 | 0.00 | 0.01 | 0.01 | 51 | 1003.8 |
| 20260505003521 | 71 | 195 | 5.0 | 15.0 | 0.00 | 0.01 | 0.01 | 51 | 1003.9 |
| 20260505003039 | 71 | 184 | 7.0 | 16.0 | 0.00 | 0.01 | 0.01 | 50 | 1003.9 |
| 20260505002521 | 71 | 200 | 5.0 | 19.0 | 0.00 | 0.01 | 0.01 | 50 | 1003.9 |
| 20260505002021 | 71 | 211 | 7.0 | 19.0 | 0.00 | 0.01 | 0.01 | 50 | 1003.9 |
| 20260505001539 | 71 | 165 | 6.0 | 18.0 | 0.00 | 0.01 | 0.01 | 50 | 1003.9 |
| 20260505001022 | 71 | 190 | 7.0 | 17.0 | 0.00 | 0.01 | 0.01 | 50 | 1004.0 |
| 20260505000524 | 71 | 218 | 5.0 | 13.0 | 0.00 | 0.01 | 0.01 | 50 | 1004.1 |
| 20260505000037 | 72 | 209 | 4.0 | 16.0 | 0.00 | 0.01 | 0.01 | 50 | 1004.0 |
| 20260504235521 | 72 | 200 | 4.0 | 17.0 | 0.00 | 0.01 | 0.01 | 49 | 1004.1 |